EDT,Max TemperatureF,Mean TemperatureF,Min TemperatureF,Max Dew PointF,MeanDew PointF,Min DewpointF,Max Humidity, Mean Humidity, Min Humidity, Max Sea Level PressureIn, Mean Sea Level PressureIn, Min Sea Level PressureIn, Max VisibilityMiles, Mean VisibilityMiles, Min VisibilityMiles, Max Wind SpeedMPH, Mean Wind SpeedMPH, Max Gust SpeedMPH,PrecipitationIn, CloudCover, Events, WindDirDegrees
2013-3-1,35,31,27,27,22,16,85,73,61,30.17,30.07,29.98,10,10,10,15,9,17,0.00,8,,19
2013-3-2,32,27,22,20,18,15,77,68,58,30.17,30.13,30.10,10,10,10,21,11,28,T,7,,351
2013-3-3,31,24,16,19,15,11,75,62,49,30.14,30.11,30.08,10,10,5,18,8,22,T,6,Snow,344
2013-3-4,36,26,15,24,15,10,84,64,44,30.18,30.12,30.06,10,10,10,13,4,16,T,3,,111
2013-3-5,34,31,28,27,25,20,92,76,59,30.07,29.88,29.78,10,3,0,20,12,25,0.72,8,Fog-Snow,71
2013-3-6,35,31,27,30,26,22,92,78,64,30.28,30.11,29.87,10,8,2,20,10,24,0.01,8,Snow,346
2013-3-7,36,28,20,30,26,17,89,73,56,30.45,30.35,30.25,10,10,2,13,6,16,0.01,7,Snow,332
2013-3-8,38,26,13,22,17,10,92,70,48,30.53,30.47,30.41,10,8,1,12,3,15,0.00,0,,146
2013-3-9,42,36,29,31,26,19,72,63,53,30.39,30.19,29.97,10,10,10,20,12,26,T,4,Rain,140
2013-3-10,59,49,38,43,38,32,79,67,55,29.94,29.84,29.71,10,10,7,17,10,22,0.09,7,Rain,158
2013-3-11,50,42,33,47,39,28,93,84,74,29.77,29.64,29.54,10,9,2,24,12,32,0.07,8,Rain,217
2013-3-12,37,33,29,30,27,22,92,74,56,29.98,29.89,29.75,10,6,0,17,13,32,0.03,8,Fog-Rain-Snow,252
2013-3-13,30,26,22,25,20,11,92,71,50,30.32,30.09,29.95,10,4,0,23,14,31,0.05,7,Fog-Snow,292
2013-3-14,41,30,18,28,18,11,85,63,40,30.34,30.27,30.12,10,10,10,16,7,20,0.00,2,,240
2013-3-15,47,38,29,37,32,27,92,76,60,30.14,29.95,29.82,10,6,2,8,6,,0.08,5,Rain,246
2013-3-16,38,34,29,36,31,20,96,80,63,30.12,29.84,29.68,10,6,1,21,9,24,T,8,Rain,20
2013-3-17,38,33,28,22,19,16,69,57,44,30.23,30.16,30.09,10,10,10,24,11,29,0.00,5,,71
2013-3-18,35,31,26,33,27,18,100,84,68,30.07,29.75,29.60,10,6,1,29,14,37,0.04,7,Rain,150
2013-3-19,34,27,20,17,13,10,68,55,41,30.06,29.90,29.78,10,9,5,32,21,40,T,6,Snow,263
2013-3-20,28,23,17,16,11,6,84,67,50,30.06,30.03,29.98,10,7,1,22,13,26,0.03,8,Snow,295
2013-3-21,29,22,15,17,15,11,92,73,53,30.06,29.99,29.94,10,5,1,20,9,24,0.11,7,Snow,273
2013-3-22,37,26,15,19,15,11,81,60,38,30.10,30.06,30.04,10,10,7,15,6,20,0.00,0,,290
2013-3-23,40,30,19,22,19,16,88,68,48,30.15,30.10,30.04,10,10,10,14,5,18,0.00,3,,12
2013-3-24,38,33,27,23,22,20,75,64,52,30.04,29.80,29.63,10,10,8,22,11,29,T,6,Snow,59
2013-3-25,37,34,30,27,24,21,78,71,64,30.02,29.77,29.62,10,10,2,22,15,28,T,8,Snow,356
2013-3-26,40,35,29,30,28,26,89,74,59,30.24,30.14,30.03,10,8,0,20,10,24,0.02,8,Fog-Snow,321
2013-3-27,43,34,25,29,23,16,92,64,36,30.33,30.29,30.25,10,10,10,21,9,25,0.00,6,,300
2013-3-28,48,35,21,27,19,15,81,56,31,30.36,30.33,30.31,10,10,10,14,5,20,0.00,0,,302
2013-3-29,51,38,24,24,18,15,74,49,24,30.35,30.31,30.26,10,10,10,16,4,21,0.00,1,,329
2013-3-30,57,40,23,32,24,16,74,54,34,30.27,30.13,29.93,10,10,10,17,6,22,T,1,,189
2013-3-31,59,48,37,43,36,26,89,63,36,29.90,29.78,29.70,10,8,1,26,13,33,T,6,Rain,269